Date String (YYYY-MM-DD hh:mm:ss) UTC,Instrument flags,absolute air pressure of the measurement (hPa),sample flow rate (lpm),inlet stack bypass flow (lpm),air temperature of the measurement (°C),ambient temperature measured by the external sensor (°C),aerosol sample conditioner tube jacket temperature (°C),OPC LED temperature (°C),internal box temperature (°C),relative humidity of the measurement (%),span deviation,mass concentration of particles derived from Lorenz-Mie calculation of OPC scattering (μg/m³),mass concentration of particles derived from Lorenz-Mie calculation of OPC scattering (μg/m³),mass concentration of particles derived from Lorenz-Mie calculation of OPC scattering (μg/m³)
DateTimeUTC,F1_M11,P_M11,Q1_M11,Q2_M11,T1_M11,T2_M11,T3_M11,T4_M11,T5_M11,U1_M11,ZSPAN_M11,X0_M11,X2_M11,X1_M11
2024-04-17 01:00:00,SystemResetWarning,0823.4,5.00,000.00,025.5,024.7,000.0,033.8,027.4,012.8,0000.0,0007.97,0002.85,0001.79
2024-04-17 01:01:00,SystemResetWarning,0823.4,5.01,000.00,025.5,024.8,000.0,033.9,027.5,012.9,0000.0,0008.68,0002.93,0001.78
2024-04-17 01:02:00,SystemResetWarning,0823.3,5.00,000.00,025.6,024.9,000.0,033.9,027.5,012.6,0000.0,0008.75,0002.96,0001.78
2024-04-17 01:03:00,SystemResetWarning,0823.3,5.00,000.00,025.6,025.0,000.0,033.9,027.6,012.6,0000.0,0008.79,0002.97,0001.79
2024-04-17 01:04:00,SystemResetWarning,0823.3,5.00,000.00,025.7,025.1,000.0,033.9,027.6,012.7,0000.0,0009.20,0002.91,0001.79
2024-04-17 01:05:00,SystemResetWarning,0823.3,4.99,000.00,025.7,025.1,000.0,034.0,027.7,012.5,0000.0,0009.09,0002.98,0001.79
2024-04-17 01:06:00,SystemResetWarning,0823.3,4.98,000.00,025.8,025.2,000.0,034.0,027.7,012.2,0000.0,0008.86,0003.01,0001.81
2024-04-17 01:07:00,SystemResetWarning,0823.2,5.01,000.00,025.8,025.3,000.0,034.0,027.8,012.1,0000.0,0008.38,0003.02,0001.81
2024-04-17 01:08:00,SystemResetWarning,0823.2,5.00,000.00,025.9,025.3,000.0,034.1,027.8,012.0,0000.0,0008.45,0003.06,0001.81
2024-04-17 01:09:00,SystemResetWarning,0823.3,5.00,000.00,025.9,025.4,000.0,034.1,027.9,012.0,0000.0,0008.41,0003.07,0001.81
2024-04-17 01:10:00,SystemResetWarning,0823.3,5.01,000.00,026.0,025.4,000.0,034.1,027.9,011.9,0000.0,0008.44,0003.10,0001.83
2024-04-17 01:11:00,SystemResetWarning,0823.3,5.00,000.00,026.0,025.5,000.0,034.1,027.9,011.9,0000.0,0008.37,0003.11,0001.85
2024-04-17 01:12:00,SystemResetWarning,0823.3,5.00,000.00,026.0,025.5,000.0,034.2,028.0,011.9,0000.0,0007.55,0003.08,0001.86
2024-04-17 01:13:00,SystemResetWarning,0823.3,5.00,000.00,026.1,025.5,000.0,034.2,028.0,011.8,0000.0,0007.36,0003.06,0001.87
2024-04-17 01:14:00,SystemResetWarning,0823.2,4.98,000.00,025.9,024.1,000.0,034.3,027.2,011.9,0000.0,0007.43,0003.10,0001.88
2024-04-17 01:15:00,SystemResetWarning,0823.1,5.01,000.00,025.5,022.3,000.0,034.3,026.1,012.1,0000.0,0006.53,0003.11,0001.89
2024-04-17 01:16:00,SystemResetWarning,0823.2,5.01,000.00,025.2,022.3,000.0,034.2,026.0,012.4,0000.0,0005.77,0003.02,0001.88
2024-04-17 01:17:00,SystemResetWarning,0823.2,5.00,000.00,025.1,022.6,000.0,034.0,026.2,012.5,0000.0,0006.19,0003.03,0001.87
2024-04-17 01:18:00,SystemResetWarning,0823.3,5.00,000.00,025.1,023.0,000.0,034.0,026.5,012.5,0000.0,0006.68,0003.00,0001.86
2024-04-17 01:19:00,SystemResetWarning,0823.4,5.00,000.00,025.2,023.3,000.0,033.9,026.7,012.4,0000.0,0006.58,0002.95,0001.86
2024-04-17 01:20:00,SystemResetWarning,0823.4,4.99,000.00,025.2,023.6,000.0,033.8,026.9,012.3,0000.0,0006.43,0002.95,0001.86
2024-04-17 01:21:00,SystemResetWarning,0823.5,5.00,000.00,025.3,023.9,000.0,033.8,027.0,012.4,0000.0,0006.17,0002.89,0001.84
2024-04-17 01:22:00,SystemResetWarning,0823.5,5.00,000.00,025.3,024.1,000.0,033.8,027.1,012.5,0000.0,0006.67,0002.84,0001.81
2024-04-17 01:23:00,SystemResetWarning,0823.5,5.00,000.00,025.3,024.3,000.0,033.8,027.2,012.5,0000.0,0007.47,0002.80,0001.80
2024-04-17 01:24:00,SystemResetWarning,0823.5,5.01,000.00,025.4,024.5,000.0,033.8,027.3,012.4,0000.0,0007.44,0002.76,0001.77
2024-04-17 01:25:00,SystemResetWarning,0823.6,4.99,000.00,025.4,024.6,000.0,033.8,027.3,012.4,0000.0,0007.35,0002.67,0001.74
2024-04-17 01:26:00,SystemResetWarning,0823.6,4.99,000.00,025.5,024.7,000.0,033.8,027.4,012.4,0000.0,0007.39,0002.65,0001.73
2024-04-17 01:27:00,SystemResetWarning,0823.5,5.00,000.00,025.5,024.8,000.0,033.8,027.5,012.4,0000.0,0007.49,0002.67,0001.73
2024-04-17 01:28:00,SystemResetWarning,0823.6,5.00,000.00,025.6,024.9,000.0,033.9,027.5,012.4,0000.0,0007.23,0002.63,0001.73
2024-04-17 01:29:00,SystemResetWarning,0823.7,5.00,000.00,025.6,025.0,000.0,033.9,027.6,012.3,0000.0,0006.73,0002.66,0001.75
2024-04-17 01:30:00,SystemResetWarning,0823.6,5.01,000.00,025.7,025.1,000.0,033.9,027.6,012.3,0000.0,0006.78,0002.68,0001.77
2024-04-17 01:31:00,SystemResetWarning,0823.6,5.00,000.00,025.7,025.1,000.0,033.9,027.7,012.3,0000.0,0006.69,0002.65,0001.78
2024-04-17 01:32:00,SystemResetWarning,0823.6,5.00,000.00,025.8,025.2,000.0,034.0,027.7,012.3,0000.0,0007.44,0002.65,0001.80
2024-04-17 01:33:00,SystemResetWarning,0823.7,5.00,000.00,025.8,025.2,000.0,034.0,027.7,012.3,0000.0,0006.99,0002.69,0001.82
2024-04-17 01:34:00,SystemResetWarning,0823.8,5.00,000.00,025.8,025.3,000.0,034.0,027.8,012.4,0000.0,0006.14,0002.72,0001.83
2024-04-17 01:35:00,SystemResetWarning,0823.7,5.01,000.00,025.9,025.3,000.0,034.0,027.8,012.4,0000.0,0006.14,0002.73,0001.85
2024-04-17 01:36:00,SystemResetWarning,0823.7,5.00,000.00,025.9,025.4,000.0,034.1,027.9,012.1,0000.0,0006.14,0002.74,0001.85
2024-04-17 01:37:00,SystemResetWarning,0823.6,5.00,000.00,025.9,025.4,000.0,034.1,027.9,011.9,0000.0,0005.93,0002.74,0001.87
2024-04-17 01:38:00,SystemResetWarning,0823.6,5.00,000.00,026.0,025.4,000.0,034.1,027.9,011.3,0000.0,0006.13,0002.83,0001.86
2024-04-17 01:39:00,SystemResetWarning,0823.7,4.99,000.00,026.0,025.4,000.0,034.2,027.9,011.7,0000.0,0006.11,0002.86,0001.85
2024-04-17 01:40:00,SystemResetWarning,0823.8,5.00,000.00,026.0,025.4,000.0,034.2,027.9,011.8,0000.0,0006.32,0002.88,0001.82
2024-04-17 01:41:00,SystemResetWarning,0823.7,4.99,000.00,026.1,025.5,000.0,034.2,028.0,012.1,0000.0,0006.69,0002.85,0001.80
2024-04-17 01:42:00,SystemResetWarning,0823.8,5.02,000.00,026.1,025.5,000.0,034.3,028.0,012.1,0000.0,0007.32,0002.82,0001.78
2024-04-17 01:43:00,SystemResetWarning,0823.8,5.00,000.00,026.1,024.8,000.0,034.3,027.6,012.2,0000.0,0006.65,0002.85,0001.78
2024-04-17 01:44:00,SystemResetWarning,0823.8,4.99,000.00,025.6,022.6,000.0,034.3,026.3,012.6,0000.0,0006.60,0002.83,0001.78
2024-04-17 01:45:00,SystemResetWarning,0823.8,5.02,000.00,025.3,022.2,000.0,034.3,025.9,012.8,0000.0,0006.51,0002.78,0001.77
2024-04-17 01:46:00,SystemResetWarning,0823.8,5.00,000.00,025.1,022.5,000.0,034.1,026.1,012.9,0000.0,0006.99,0002.78,0001.77
2024-04-17 01:47:00,SystemResetWarning,0823.8,4.99,000.00,025.1,022.8,000.0,034.0,026.4,013.1,0000.0,0007.19,0002.79,0001.78
2024-04-17 01:48:00,SystemResetWarning,0823.8,4.99,000.00,025.2,023.2,000.0,033.9,026.7,013.2,0000.0,0007.17,0002.76,0001.77
2024-04-17 01:49:00,SystemResetWarning,0823.8,5.00,000.00,025.2,023.5,000.0,033.9,026.8,012.9,0000.0,0007.14,0002.70,0001.78
2024-04-17 01:50:00,SystemResetWarning,0823.9,5.01,000.00,025.2,023.8,000.0,033.8,026.9,013.0,0000.0,0006.95,0002.68,0001.79
2024-04-17 01:51:00,SystemResetWarning,0823.9,5.01,000.00,025.3,024.0,000.0,033.8,027.0,013.1,0000.0,0006.90,0002.60,0001.79
2024-04-17 01:52:00,SystemResetWarning,0823.9,5.00,000.00,025.3,024.2,000.0,033.8,027.1,013.3,0000.0,0007.39,0002.67,0001.81
2024-04-17 01:53:00,SystemResetWarning,0824.0,4.99,000.00,025.3,024.3,000.0,033.8,027.2,013.3,0000.0,0006.80,0002.74,0001.82
2024-04-17 01:54:00,SystemResetWarning,0824.0,5.00,000.00,025.4,024.5,000.0,033.8,027.3,013.3,0000.0,0006.87,0002.75,0001.82
2024-04-17 01:55:00,SystemResetWarning,0824.0,5.00,000.00,025.4,024.6,000.0,033.8,027.3,013.3,0000.0,0006.82,0002.79,0001.82
2024-04-17 01:56:00,SystemResetWarning,0824.0,5.00,000.00,025.5,024.7,000.0,033.8,027.4,013.3,0000.0,0006.81,0002.80,0001.83
2024-04-17 01:57:00,SystemResetWarning,0824.0,5.00,000.00,025.5,024.8,000.0,033.8,027.4,013.3,0000.0,0006.72,0002.77,0001.83
2024-04-17 01:58:00,SystemResetWarning,0824.0,5.00,000.00,025.5,024.8,000.0,033.8,027.5,013.3,0000.0,0006.45,0002.74,0001.84
2024-04-17 01:59:00,SystemResetWarning,0824.0,5.01,000.00,025.6,024.9,000.0,033.8,027.5,013.2,0000.0,0006.64,0002.81,0001.84
